Back to catalog

SSETI-EXPRESS DEB

AliveSSO
NORAD 28897·DEBRIS·🇪🇺 EU

Launched Oct 27, 2005 from Plesetsk Cosmodrome

Loading…

Next Passes (next 24 hours)

TLE

FreshSource: Space-Track

Epoch: Sep 14, 2026, 09:58 UTC

1 28897U 05043H   26257.41595968  .00001111  00000-0  17650-3 0  9991
2 28897  98.3053  57.3949 0011989 265.7254 124.3112 14.74152073107455

Track SSETI-EXPRESS DEB in real time with AllMySat

Download on the App Store